This is the latest recevied weather packets stored in our database for station/object N0KTA-2. If no packets are shown the sender has not sent any weather packets the latest 10 day(s).
| Time | Temp. | Humidity | Pressure | Rain* | Wind** | Luminosity | Snow |
|---|---|---|---|---|---|---|---|
| 1788445249 | 27.78° C | 69% | 1008 hPa | 0 mm | - | - | - |
| 1788444650 | 27.22° C | 70% | 1008.1 hPa | 0 mm | - | - | - |
| 1788444050 | 27.22° C | 72% | 1008.2 hPa | 0 mm | - | - | - |
| 1788443449 | 26.67° C | 72% | 1008.2 hPa | 0 mm | - | - | - |
| 1788442850 | 26.11° C | 73% | 1008.2 hPa | 0 mm | - | - | - |
| 1788442249 | 26.11° C | 73% | 1008.2 hPa | 0 mm | - | - | - |
| 1788441650 | 25.56° C | 74% | 1008.2 hPa | 0 mm | - | - | - |
| 1788441057 | 25.56° C | 74% | 1008.2 hPa | 0 mm | - | - | - |
| 1788440449 | 25.56° C | 74% | 1007.9 hPa | 0 mm | - | - | - |
| 1788439849 | 25.56° C | 74% | 1007.9 hPa | 0 mm | - | - | - |
| 1788439249 | 25° C | 73% | 1007.9 hPa | 0 mm | - | - | - |
| 1788438649 | 25° C | 73% | 1007.8 hPa | 0 mm | - | - | - |
| 1788438050 | 25.56° C | 72% | 1007.6 hPa | 0 mm | - | - | - |
| 1788437450 | 25.56° C | 72% | 1007.5 hPa | 0 mm | - | - | - |
| 1788436850 | 25.56° C | 71% | 1007.3 hPa | 0 mm | - | - | - |
| 1788436249 | 25.56° C | 71% | 1007.2 hPa | 0 mm | - | - | - |
| 1788435650 | 25.56° C | 71% | 1007.1 hPa | 0 mm | - | - | - |
| 1788435049 | 25.56° C | 70% | 1007.2 hPa | 0 mm | - | - | - |
| 1788434450 | 25.56° C | 70% | 1007.2 hPa | 0 mm | - | - | - |
| 1788433849 | 26.11° C | 69% | 1007.2 hPa | 0 mm | - | - | - |
| 1788433255 | 26.11° C | 68% | 1007.1 hPa | 0 mm | - | - | - |
| 1788432650 | 26.11° C | 68% | 1007.1 hPa | 0 mm | - | - | - |
| 1788432049 | 26.67° C | 68% | 1007.1 hPa | 0 mm | - | - | - |
| 1788431450 | 26.67° C | 68% | 1007.1 hPa | 0 mm | - | - | - |
| 1788430849 | 26.67° C | 67% | 1007.1 hPa | 0 mm | - | - | - |
* Rain latest hour (hover to see other rain measurements)
** Current wind speed in m/s (hover to see current wind gust speed)